Portsmouth, NH

8:56 AM EDT on May 23, 2017 (GMT -0400)
Pease International Tradeport

Weather History for KPSM - May, 2013

Change the Weather History Date:

Thursday, May 9, 2013

  Actual Average Record
Temperature  
Mean Temperature 56 °F -  
Max Temperature 61 °F 61 °F 93 °F (1979)
Min Temperature 53 °F 42 °F 15 °F (1985)
Degree Days  
Heating Degree Days 8    
Growing Degree Days 6 (Base 50)    
Moisture  
Dew Point 55 °F    
Average Humidity 98    
Maximum Humidity 100    
Minimum Humidity 88    
Precipitation  
Precipitation 0.89 in - - ()
Sea Level Pressure  
Sea Level Pressure 29.98 in    
Wind  
Wind Speed 5 mph (ENE)    
Max Wind Speed 10 mph    
Max Gust Speed -    
Visibility 4 miles    
Events Fog , Rain , Thunderstorm    
Averages and records for this station are not official NWS values.
T = Trace of Precipitation, MM = Missing Value Source: NWS Daily Summary

Daily Weather History Graph

Daily Weather History Graph

Search for Another Location

Airport or City:

Trip Planner

Search our weather history database for the weather conditions in past years. The results will help you decide how hot, cold, wet, or windy it might be!

Date:

Astronomy

May. 09, 2013 Rise Set
Actual Time 5:26 AM EDT 7:53 PM EDT
Civil Twilight 4:54 AM EDT 8:25 PM EDT
Nautical Twilight 4:14 AM EDT 9:05 PM EDT
Astronomical Twilight 3:29 AM EDT 9:50 PM EDT
Moon 5:09 AM EDT (5/9) 7:45 PM EDT (5/9)
Length of Visible Light 15h 31m
Length of Day
14h 27m
Waning Crescent, 0% of the Moon is Illuminated
May 9
Waning Crescent
May 9
New
May 18
First Quarter
May 25
Full
May 31
Last Quarter

Hourly Weather History & Observations

Time (EDT) Temp. Dew Point Humidity Pressure Visibility Wind Dir Wind Speed Gust Speed Precip Events Conditions
12:13 AM 55.4 °F 53.6 °F 94% 30.07 in 7.0 mi East 8.1 mph - N/A   Overcast
12:43 AM 55.4 °F 53.6 °F 94% 30.06 in 6.0 mi East 6.9 mph - N/A Rain Light Rain
12:58 AM 54.3 °F 54.3 °F 100% 30.07 in 4.0 mi East 5.8 mph - 0.03 in Rain Light Rain
1:37 AM 53.6 °F 53.6 °F 100% 30.03 in 2.0 mi ENE 8.1 mph - N/A Rain Rain
1:58 AM 54.0 °F 53.6 °F 99% 30.04 in 3.0 mi East 4.6 mph - 0.28 in Rain Rain
2:58 AM 54.3 °F 54.0 °F 99% 30.03 in 3.0 mi East 3.5 mph - 0.15 in Rain Rain
3:29 AM 55.4 °F 53.6 °F 94% 30.01 in 2.0 mi East 4.6 mph - N/A   Overcast
3:58 AM 54.7 °F 54.3 °F 99% 30.02 in 3.0 mi ESE 2.3 mph - 0.02 in   Overcast
4:42 AM 55.4 °F 55.4 °F 100% 29.98 in 0.5 mi NE 5.8 mph - N/A Fog Fog
4:58 AM 54.7 °F 54.7 °F 100% 30.00 in 0.5 mi Calm Calm - N/A Fog Fog
5:10 AM 55.4 °F 55.4 °F 100% 29.99 in 0.5 mi North 2.3 mph - N/A Fog Fog
5:23 AM 55.4 °F 55.4 °F 100% 29.99 in 0.1 mi NNE 4.6 mph - N/A Fog Fog
5:42 AM 55.4 °F 55.4 °F 100% 30.00 in 0.1 mi NE 4.6 mph - N/A Fog Fog
5:58 AM 55.0 °F 55.0 °F 100% 30.01 in 0.1 mi ENE 4.6 mph - N/A Fog Fog
6:58 AM 54.5 °F 54.5 °F 100% 30.01 in 0.1 mi ENE 5.8 mph - N/A Fog Fog
7:13 AM 55.4 °F 55.4 °F 100% 30.00 in 0.2 mi ENE 6.9 mph - N/A Fog Fog
7:45 AM 55.4 °F 55.4 °F 100% 30.00 in 1.0 mi NE 4.6 mph - N/A   Overcast
7:58 AM 54.7 °F 54.7 °F 100% 30.02 in 1.5 mi NE 5.8 mph - N/A   Overcast
8:34 AM 55.4 °F 55.4 °F 100% 30.00 in 3.0 mi NNE 4.6 mph - N/A   Overcast
8:58 AM 55.9 °F 55.6 °F 99% 30.01 in 7.0 mi ENE 3.5 mph - N/A   Overcast
9:28 AM 55.4 °F 55.4 °F 100% 29.99 in 4.0 mi North 2.3 mph - N/A Rain Light Rain Showers
9:58 AM 57.4 °F 57.4 °F 100% 30.00 in 7.0 mi NE 5.8 mph - 0.00 in Rain Light Rain Showers
10:58 AM 58.6 °F 57.2 °F 95% 29.99 in 7.0 mi NE 4.6 mph - 0.02 in Rain Light Rain Showers
11:40 AM 59.0 °F 57.2 °F 94% 29.97 in 10.0 mi North 1.2 mph - N/A   Overcast
11:58 AM 60.4 °F 57.2 °F 89% 29.98 in 10.0 mi East 4.6 mph - 0.00 in   Overcast
12:31 PM 60.8 °F 57.2 °F 88% 29.96 in 10.0 mi NE 2.3 mph - N/A   Overcast
12:58 PM 60.3 °F 57.2 °F 90% 29.98 in 10.0 mi WSW 3.5 mph - N/A   Overcast
1:58 PM 58.5 °F 56.1 °F 92% 29.97 in 3.0 mi SSE 4.6 mph - 0.00 in Rain Light Rain Showers
2:29 PM 57.2 °F 57.2 °F 100% 29.95 in 2.0 mi South 4.6 mph - N/A Rain Rain Showers
2:58 PM 55.9 °F 55.8 °F 99% 29.96 in 3.0 mi SE 9.2 mph - 0.19 in Rain , Thunderstorm Light Rain
3:12 PM 55.4 °F 55.4 °F 100% 29.94 in 3.0 mi ESE 9.2 mph - N/A Rain Light Rain Showers
3:28 PM 55.4 °F 55.4 °F 100% 29.91 in 3.0 mi NE 10.4 mph - N/A Rain Light Rain Showers
3:58 PM 55.8 °F 55.4 °F 99% 29.93 in 7.0 mi SW 3.5 mph - 0.14 in   Overcast
4:58 PM 57.2 °F 56.8 °F 99% 29.92 in 7.0 mi South 2.3 mph - N/A   Overcast
5:58 PM 57.0 °F 56.8 °F 99% 29.93 in 7.0 mi SSW 2.3 mph - N/A   Overcast
6:58 PM 57.4 °F 57.0 °F 99% 29.93 in 7.0 mi SSE 3.5 mph - 0.00 in Rain Light Rain Showers
7:43 PM 57.2 °F 57.2 °F 100% 29.91 in 9.0 mi NNE 2.3 mph - N/A Rain Light Rain
7:58 PM 57.4 °F 57.0 °F 99% 29.92 in 3.0 mi Calm Calm - 0.01 in Rain Light Rain
8:58 PM 54.5 °F 54.1 °F 99% 29.92 in 2.5 mi East 6.9 mph - 0.05 in   Light Drizzle
9:35 PM 53.6 °F 53.6 °F 100% 29.92 in 2.5 mi ENE 1.2 mph - N/A   Overcast
9:58 PM 54.0 °F 53.6 °F 99% 29.93 in 2.5 mi NNE 2.3 mph - 0.00 in   Overcast
10:47 PM 53.6 °F 53.6 °F 100% 29.91 in 0.3 mi NNE 2.3 mph - N/A Fog Fog
10:58 PM 54.3 °F 54.3 °F 100% 29.92 in 0.3 mi ENE 2.3 mph - N/A Fog Fog
11:13 PM 53.6 °F 53.6 °F 100% 29.91 in 0.3 mi East 1.2 mph - N/A Fog Fog
11:58 PM 54.5 °F 54.5 °F 100% 29.91 in 0.5 mi Calm Calm - N/A Fog Light Drizzle